Regional Weather Roundup
Issued by NWS Binghamton, NY

Home | Current Version | Previous Version | Text Only | Print | Product List | Glossary On
Versions: 1 2 3 4 5 6 7 8 9 10 11 12 13 14 15 16 17 18 19 20 21 22 23 24 25 26 27 28 29 30 31 32 33 34 35 36 37 38 39 40 41 42 43 44 45 46 47 48 49 50
000
ASUS41 KBGM 230910
RWRBGM

REGIONAL WEATHER ROUNDUP
NATIONAL WEATHER SERVICE BINGHAMTON NY
500 AM EDT SUN APR 23 2017

Note: "fair" indicates few or no clouds below 12,000 feet with no
significant weather and/or obstructions to visibility.

* = Station(s) that does not report precipitation, such as rain,
snow, etc, also no thunder or fog.

NYZ009-015>018-022>025-036-037-044>046-055>057-062-231000
...Central New York...

CITY           SKY/WX    TMP DP  RH WIND       PRES   REMARKS
Binghamton     CLEAR     37  32  82 NW5       30.05S WCI  33
Dansville      CLEAR     33  30  88 SE5       30.10F WCI  29
Elmira         CLEAR     29  27  92 W3        30.09S
Seneca Falls   SUNNY     36  36 100 S6        30.09S WCI  31
Ithaca         CLEAR     30  29  96 E6        30.08S WCI  24
Hamilton       CLOUDY    28  28 100 CALM      30.07S VSB 1/4
Monticello     CLEAR     34  32  93 CALM      30.06R
Norwich        FOG       30  30 100 CALM      30.09S VSB 1/2
Penn Yan       CLEAR     35  31  85 CALM      30.08S
Rome           CLEAR     30  29  96 CALM      30.09S
Sidney         FOG       30  30 100 CALM      30.08S VSB 1/4
Syracuse       PTCLDY    34  32  92 CALM      30.07S
$$

PAZ038>040-043-044-047-048-072-231000
...Northeast Pennsylvania...

CITY           SKY/WX    TMP DP  RH WIND       PRES   REMARKS
Scranton       CLEAR     37  33  85 E5        30.07S WCI  33
$$
&&
KEY
WCI = Wind Chill Index
VSB = Visibility
HX  = Heat Index
$$



USA.gov is the U.S. government's official web portal to all federal, state and local government web resources and services.